Location: ActonStarParty
(42.4766°N, 71.4538°W)
Time: 15:36:15
(UTC-05:00)

ISS - All Passes

Search period start: 27 February 2017 00:00
Search period end: 09 March 2017 00:00
Orbit: 399 x 408 km, 51.6° (Epoch: 28 February)

Date Brightness Start Highest point End Pass type
(mag) Time Alt. Az. Time Alt. Az. Time Alt. Az.
27 Feb - 06:15:20 10° S 06:17:59 23° SE 06:20:41 10° E daylight
27 Feb - 07:51:05 10° WSW 07:54:17 47° NNW 07:57:29 10° NE daylight
27 Feb - 09:28:58 10° NW 09:31:20 18° N 09:33:42 10° NE daylight
27 Feb - 11:06:12 10° NW 11:08:41 19° NNE 11:11:10 10° ENE daylight
27 Feb - 12:42:22 10° NW 12:45:39 61° NNE 12:48:53 10° ESE daylight
27 Feb - 14:19:35 10° W 14:21:48 17° SW 14:24:00 10° S daylight
28 Feb - 05:24:13 10° SSE 05:25:40 12° SE 05:27:07 10° ESE visible
28 Feb - 06:58:23 10° WSW 07:01:41 82° NW 07:05:00 10° NE daylight
28 Feb - 08:35:55 10° WNW 08:38:32 21° NNW 08:41:10 10° NE daylight
28 Feb - 10:13:35 10° NW 10:15:52 17° N 10:18:09 10° NE daylight
28 Feb - 11:49:54 10° NW 11:53:00 37° NNE 11:56:06 10° E daylight
28 Feb - 13:26:28 10° WNW 13:29:25 31° SW 13:32:21 10° SSE daylight
01 Mar - 06:05:56 10° SW 06:09:09 53° SE 06:12:23 10° ENE daylight
01 Mar - 07:42:52 10° W 07:45:46 28° NNW 07:48:41 10° NE daylight
01 Mar - 09:20:48 10° NW 09:23:01 16° N 09:25:14 10° NE daylight
01 Mar - 10:57:26 10° NW 11:00:17 26° NNE 11:03:07 10° E daylight
01 Mar - 12:33:42 10° WNW 12:36:57 60° SW 12:40:11 10° SE daylight
02 Mar - 05:13:50 10° SSW 05:16:41 28° SE 05:19:33 10° ENE visible
02 Mar - 06:49:55 10° W 06:53:04 40° NNW 06:56:13 10° NE daylight
02 Mar - 08:27:51 10° NW 08:30:10 17° N 08:32:28 10° NE daylight
02 Mar - 10:04:56 10° NW 10:07:29 20° NNE 10:10:04 10° ENE daylight
02 Mar - 11:41:05 10° NW 11:44:23 73° NNE 11:47:40 10° ESE daylight
02 Mar - 13:18:40 10° W 13:20:27 14° SW 13:22:15 10° SSW daylight
03 Mar - 04:22:18 10° S 04:24:18 15° SE 04:26:17 10° E visible
03 Mar - 05:57:07 10° WSW 06:00:24 68° NNW 06:03:41 10° NE daylight
03 Mar - 07:34:47 10° WNW 07:37:19 20° NNW 07:39:51 10° NE daylight
03 Mar - 09:12:19 10° NW 09:14:39 18° N 09:16:59 10° NE daylight
03 Mar - 10:48:34 10° NW 10:51:45 42° NNE 10:54:54 10° E daylight
03 Mar - 12:25:17 10° WNW 12:28:04 26° SW 12:30:51 10° SSE daylight
04 Mar - 05:04:33 10° SW 05:07:48 66° SE 05:11:05 10° ENE visible
04 Mar - 06:41:41 10° WNW 06:44:29 25° NNW 06:47:19 10° NE daylight
04 Mar - 08:19:34 10° NW 08:21:46 16° N 08:23:59 10° NE daylight
04 Mar - 09:56:03 10° NW 09:59:00 29° NNE 10:01:56 10° E daylight
04 Mar - 11:32:23 10° WNW 11:35:35 49° SW 11:38:45 10° SE daylight
05 Mar - 04:12:16 10° SSW 04:15:16 34° SE 04:18:18 10° ENE visible
05 Mar - 05:48:39 10° W 05:51:43 35° NNW 05:54:48 10° NE daylight
05 Mar - 07:26:36 10° NW 07:28:52 17° N 07:31:08 10° NE daylight
05 Mar - 09:03:32 10° NW 09:06:11 22° NNE 09:08:51 10° ENE daylight
05 Mar - 10:39:42 10° NW 10:43:01 87° NE 10:46:18 10° SE daylight
05 Mar - 12:17:52 10° WSW 12:19:00 11° SW 12:20:06 10° SSW daylight
06 Mar - 03:20:29 10° S 03:22:49 18° SE 03:25:10 10° E visible
06 Mar - 04:55:45 10° WSW 04:59:00 57° NNW 05:02:16 10° NE visible
06 Mar - 06:33:32 10° WNW 06:35:59 19° N 06:38:27 10° NE daylight
06 Mar - 08:10:55 10° NW 08:13:19 18° N 08:15:42 10° NE daylight
06 Mar - 09:47:07 10° NW 09:50:21 50° NNE 09:53:33 10° ESE daylight
06 Mar - 11:24:02 10° W 11:26:35 21° SW 11:29:09 10° S daylight
07 Mar - 04:03:04 10° SW 04:06:20 80° SSE 04:09:39 10° ENE visible
07 Mar - 05:40:23 10° WNW 05:43:07 23° NNW 05:45:51 10° NE visible
07 Mar - 07:18:10 10° NW 07:20:25 17° N 07:22:38 10° NE daylight
07 Mar - 08:54:34 10° NW 08:57:36 32° NNE 09:00:36 10° E daylight
07 Mar - 10:30:59 10° WNW 10:34:06 39° SW 10:37:11 10° SSE daylight
08 Mar - 03:10:38 10° SSW 03:13:46 41° SE 03:16:53 10° ENE visible
08 Mar - 04:47:17 10° W 04:50:16 31° NNW 04:53:17 10° NE visible
08 Mar - 06:25:15 10° NW 06:27:28 17° N 06:29:41 10° NE daylight
08 Mar - 08:02:01 10° NW 08:04:46 23° NNE 08:07:30 10° ENE daylight
08 Mar - 09:38:12 10° WNW 09:41:31 77° SW 09:44:48 10° SE daylight
